星链-6051 (STARLINK-6051 )

导读

STARLINK-6051是美国SpaceX公司星链(Starlink)低轨互联网卫星星座中的一员,于2023年5月10日发射入轨。它属于星链第二代低轨卫星,依托星链星座部署,为全球提供高速低延迟宽带互联网服务,可覆盖偏远地区,同时支持海事、航空移动场景联网,星链星座规划总规模超四万颗,该卫星是SpaceX扩张星链网络的重要组成部分。

基本信息
目录编号:
56463
目录名称:
STARLINK-6051
国际标识:
2023-064R
轨道中心:
EARTH
卫星名称:
星链-6051
卫星全名:
星链-6051 (STARLINK-6051 )
卫星状态:
在轨 (已飞行1131 天)
发射日期:
2023-05-10 UTC
国别 :
美国 (US)
星等 :
--
轨道信息
数据来源 国际轨道数据 AOE轨道数据
星历时间 2026-06-14T21:23:31+0800
9小时前
查看轨道信息
2026-06-11T10:00:00+0800
3天前
查看轨道信息
半长轴 6950.188km 6950.169km
偏心率 0.0003253 0.0003091
轨道倾角 69.999° 69.999°
近地点辐角 269.856° 274.537°
升交点赤经 260.298° 269.057°
平近点角 90.223° 68.612°
近地点 569.79km 569.883km
远地点 574.312km 574.181km
周期 96.107分钟 96.106分钟
每日圈数 14.983317 14.983378
详细信息
固有亮度:
5
最大亮度:
2.5
卫星平台:
Starlink v1.5
覆盖范围:
全球
运营商:
太空探索技术公司
运营商所在国:
美国
制造商(研发单位):
太空探索技术公司
制造商所在国:
美国
使用方式:
暂无
卫星简介
星链(Starlink)计划是由太空探索技术公司(SpaceX)提出的一个巨型低轨卫星互联网星座项目,计划在2019年至2024年间在太空搭建由约1.2万颗卫星组成的“星链”网络,其中1584颗将部署在地球上空550千米处的近地轨道,并从2020年开始工作。该卫星仍在工作。
2D轨道图
3D轨道图
轨道高度分析图
轨道倾角分析图
轨道综合分析图
查看轨道综合分析图